Location: Unspecified
(29.9680°N, 0.0000°E)
Time: 14:01:10
(UTC+00:00)

A-11 Canister half - Pass Details

Date: 27 June 2019
Orbit: 1526 x 1683 km, 47.3° (Epoch: 15 July)

Event Time Altitude Azimuth Distance (km) Brightness Sun altitude
Rises 02:55:50 0° 242° (WSW) 4,813 - -22.4°
Reaches altitude 10° 02:59:02 10° 246° (WSW) 3,807 - -22.0°
Exits shadow 03:02:39 26° 254° (WSW) 2,740 9.8 -21.4°
Maximum altitude 03:08:32 61° 325° (NW) 1,741 9.3 -20.5°
Drops below altitude 10° 03:17:47 10° 45° (NE) 3,710 12.3 -19.1°
Sets 03:20:54 0° 49° (NE) 4,684 13.3 -18.6°
